timestamp,surface_pressure_avg,surface_temp_avg,battery_voltage,lat,long
2020-07-16 00:09:01+00:00,229.4564,14.3,12.73,47.84626,-54.09684
2020-07-16 00:19:01+00:00,230.4064,14.3,12.73,47.84626,-54.09684
2020-07-16 00:29:01+00:00,225.9015,14.29,12.73,47.84626,-54.09684
2020-07-16 00:39:01+00:00,223.3197,14.1,12.73,47.84626,-54.09684
2020-07-16 00:49:01+00:00,220.8415,14.1,12.73,47.84626,-54.09684
2020-07-16 00:59:01+00:00,216.4564,14.15,12.73,47.84626,-54.09684
2020-07-16 01:09:01+00:00,213.2131,14.2,12.73,47.84626,-54.09684
2020-07-16 01:19:01+00:00,212.1247,14.23,12.65,47.84626,-54.09684
2020-07-16 01:29:01+00:00,212.8214,14.27,12.65,47.84626,-54.09684
2020-07-16 01:39:01+00:00,213.7297,14.2,12.65,47.84626,-54.09684
2020-07-16 01:49:01+00:00,213.0614,14.2,12.65,47.84626,-54.09684
2020-07-16 01:59:01+00:00,209.4464,14.1,12.65,47.84626,-54.09684
2020-07-16 02:09:01+00:00,209.7365,14.16,12.65,47.84626,-54.09684
2020-07-16 02:19:01+00:00,214.0731,14.19,12.65,47.84626,-54.09684
2020-07-16 02:29:01+00:00,211.8214,14.1,12.65,47.84626,-54.09684
2020-07-16 02:39:01+00:00,209.1848,14.02,12.65,47.84626,-54.09684
2020-07-16 02:49:01+00:00,213.8831,14.1,12.65,47.84626,-54.09684
2020-07-16 02:59:01+00:00,217.2298,14.1,12.65,47.84626,-54.09684
2020-07-16 03:09:01+00:00,214.9481,14.1,12.65,47.84626,-54.09684
2020-07-16 03:19:01+00:00,212.0981,14.1,12.57,47.84626,-54.09684
2020-07-16 03:29:01+00:00,214.4731,14.1,12.57,47.84626,-54.09684
2020-07-16 03:39:01+00:00,215.9048,14.1,12.57,47.84626,-54.09684
2020-07-16 03:49:01+00:00,215.8581,14.09,12.57,47.84626,-54.09684
2020-07-16 03:59:01+00:00,216.3131,14.06,12.57,47.84626,-54.09684
2020-07-16 04:09:01+00:00,219.8264,14.0,12.57,47.84626,-54.09684
2020-07-16 04:19:01+00:00,224.5197,13.93,12.57,47.84626,-54.09684
2020-07-16 04:29:01+00:00,225.3015,12.83,12.57,47.84626,-54.09684
2020-07-16 04:39:01+00:00,226.4331,12.98,12.57,47.84626,-54.09684
2020-07-16 04:49:01+00:00,229.0081,13.6,12.57,47.84626,-54.09684
2020-07-16 04:59:01+00:00,233.0297,13.5,12.57,47.84626,-54.09684
2020-07-16 05:09:01+00:00,235.5415,13.6,12.57,47.84626,-54.09684
2020-07-16 05:19:01+00:00,239.3548,13.66,12.57,47.84626,-54.09684
2020-07-16 05:29:01+00:00,247.4431,13.6,12.57,47.84626,-54.09684
2020-07-16 05:39:01+00:00,253.5731,13.1,12.57,47.84626,-54.09684
2020-07-16 05:49:01+00:00,256.8881,13.08,12.57,47.84626,-54.09684
2020-07-16 05:59:01+00:00,258.7365,13.22,12.57,47.84626,-54.09684
2020-07-16 06:09:01+00:00,264.1264,13.33,12.57,47.84626,-54.09684
2020-07-16 06:19:01+00:00,271.5264,13.49,12.57,47.84626,-54.09684
2020-07-16 06:29:01+00:00,274.21299999999997,13.4,12.57,47.84626,-54.09684
2020-07-16 06:39:01+00:00,273.003,13.4,12.57,47.84626,-54.09684
2020-07-16 06:49:01+00:00,275.7164,13.4,12.57,47.84626,-54.09684
2020-07-16 06:59:01+00:00,283.7331,13.1,12.57,47.84626,-54.09684
2020-07-16 07:09:01+00:00,289.7646,13.1,12.57,47.84626,-54.09684
2020-07-16 07:19:01+00:00,289.7864,13.1,12.57,47.84626,-54.09684
2020-07-16 07:29:01+00:00,288.5697,12.41,12.57,47.84626,-54.09684
2020-07-16 07:39:01+00:00,290.608,11.8,12.57,47.84626,-54.09684
2020-07-16 07:49:01+00:00,289.1431,12.3,12.57,47.84626,-54.09684
2020-07-16 07:59:01+00:00,285.1547,12.12,12.57,47.84626,-54.09684
2020-07-16 08:09:01+00:00,283.7447,11.8,12.57,47.84626,-54.09684
2020-07-16 08:19:01+00:00,289.0064,12.41,12.57,47.84626,-54.09684
2020-07-16 08:29:01+00:00,289.993,12.7,12.57,47.84626,-54.09684
2020-07-16 08:39:01+00:00,289.4831,11.76,12.57,47.84626,-54.09684
2020-07-16 08:49:01+00:00,289.0547,11.6,12.57,47.84626,-54.09684
2020-07-16 08:59:01+00:00,289.4313,11.61,12.57,47.84626,-54.09684
2020-07-16 09:09:01+00:00,286.3797,11.45,12.57,47.84626,-54.09684
2020-07-16 09:19:01+00:00,286.403,11.1,12.57,47.84626,-54.09684
2020-07-16 09:29:01+00:00,285.6064,11.1,12.57,47.84626,-54.09684
2020-07-16 09:39:01+00:00,282.0514,10.8,12.57,47.84626,-54.09684
2020-07-16 09:49:01+00:00,277.6031,10.79,12.57,47.84626,-54.09684
2020-07-16 09:59:01+00:00,274.613,12.07,12.57,47.84626,-54.09684
2020-07-16 10:09:01+00:00,270.5147,12.69,12.57,47.84626,-54.09684
2020-07-16 10:19:01+00:00,264.9098,11.07,12.65,47.84626,-54.09684
2020-07-16 10:29:01+00:00,259.4131,10.0,12.65,47.84626,-54.09684
2020-07-16 10:39:01+00:00,257.3864,9.9,12.65,47.84626,-54.09684
2020-07-16 10:49:01+00:00,255.7781,9.9,12.65,47.84626,-54.09684
2020-07-16 10:59:01+00:00,249.5564,9.8,12.65,47.84626,-54.09684
2020-07-16 11:09:01+00:00,244.7864,10.51,12.65,47.84626,-54.09684
2020-07-16 11:19:01+00:00,241.1714,11.69,12.65,47.84626,-54.09684
2020-07-16 11:29:01+00:00,237.7014,11.2,12.65,47.84626,-54.09684
2020-07-16 11:39:01+00:00,231.3098,10.58,12.65,47.84626,-54.09684
2020-07-16 11:49:01+00:00,227.7981,10.87,12.65,47.84626,-54.09684
2020-07-16 11:59:01+00:00,225.8348,11.47,12.65,47.84626,-54.09684
2020-07-16 12:09:01+00:00,220.8631,11.83,12.65,47.84626,-54.09684
2020-07-16 12:19:01+00:00,215.3081,12.0,12.89,47.84626,-54.09684
2020-07-16 12:29:01+00:00,213.7065,12.06,12.89,47.84626,-54.09684
2020-07-16 12:39:01+00:00,215.1198,12.18,12.89,47.84626,-54.09684
2020-07-16 12:49:01+00:00,213.7831,12.2,12.89,47.84626,-54.09684
2020-07-16 12:59:01+00:00,211.6431,12.2,12.89,47.84626,-54.09684
2020-07-16 13:09:01+00:00,210.5215,11.63,12.89,47.84626,-54.09684
2020-07-16 13:19:01+00:00,210.8948,10.95,13.6,47.84626,-54.09684
2020-07-16 13:29:01+00:00,212.1747,10.4,13.6,47.84626,-54.09684
2020-07-16 13:39:01+00:00,207.7381,10.11,13.6,47.84626,-54.09684
2020-07-16 13:49:01+00:00,203.9382,10.3,13.6,47.84626,-54.09684
2020-07-16 13:59:01+00:00,206.2981,10.3,13.6,47.84626,-54.09684
2020-07-16 14:09:01+00:00,205.5048,10.2,13.6,47.84626,-54.09684
2020-07-16 14:19:01+00:00,202.1815,10.29,14.48,47.84626,-54.09684
2020-07-16 14:29:01+00:00,204.6447,10.52,14.48,47.84626,-54.09684
2020-07-16 14:39:01+00:00,208.0381,10.6,14.48,47.84626,-54.09684
2020-07-16 14:49:01+00:00,206.8398,10.4,14.48,47.84626,-54.09684
2020-07-16 14:59:01+00:00,205.3698,10.19,14.48,47.84626,-54.09684
2020-07-16 15:09:01+00:00,207.7964,10.27,14.48,47.84626,-54.09684
2020-07-16 15:19:01+00:00,211.0231,10.29,14.08,47.84626,-54.09684
2020-07-16 15:29:01+00:00,212.0897,10.1,14.08,47.84626,-54.09684
2020-07-16 15:39:01+00:00,212.6781,9.84,14.08,47.84626,-54.09684
2020-07-16 15:49:01+00:00,215.4381,9.3,14.08,47.84626,-54.09684
2020-07-16 15:59:01+00:00,217.7898,9.1,14.08,47.84626,-54.09684
2020-07-16 16:09:01+00:00,218.0564,8.9,14.08,47.84626,-54.09684
2020-07-16 16:19:01+00:00,218.8865,8.36,14.0,47.84626,-54.09684
2020-07-16 16:29:01+00:00,224.8864,8.1,14.0,47.84626,-54.09684
2020-07-16 16:39:01+00:00,227.6864,7.3,14.0,47.84626,-54.09684
2020-07-16 16:49:01+00:00,228.3198,7.1,14.0,47.84626,-54.09684
2020-07-16 16:59:01+00:00,235.4114,7.1,14.0,47.84626,-54.09684
2020-07-16 17:09:01+00:00,244.4448,7.74,14.0,47.84626,-54.09684
2020-07-16 17:19:01+00:00,246.063,9.0,14.16,47.84626,-54.09684
2020-07-16 17:29:01+00:00,249.2031,7.9,14.16,47.84626,-54.09684
2020-07-16 17:39:01+00:00,256.8164,6.4,14.16,47.84626,-54.09684
2020-07-16 17:49:01+00:00,265.7347,6.83,14.16,47.84626,-54.09684
2020-07-16 17:59:01+00:00,266.743,9.38,14.16,47.84626,-54.09684
2020-07-16 18:09:01+00:00,271.843,8.61,14.16,47.84626,-54.09684
2020-07-16 18:19:01+00:00,279.0047,7.7,14.24,47.84626,-54.09684
2020-07-16 18:29:01+00:00,284.8914,6.6,14.24,47.84626,-54.09684
2020-07-16 18:39:01+00:00,286.7798,6.5,14.24,47.84626,-54.09684
2020-07-16 18:49:01+00:00,293.733,6.35,14.24,47.84626,-54.09684
2020-07-16 18:59:01+00:00,301.3647,6.07,14.24,47.84626,-54.09684
2020-07-16 19:09:01+00:00,303.9363,6.0,14.24,47.84626,-54.09684
2020-07-16 19:19:01+00:00,305.5213,5.98,14.16,47.84626,-54.09684
2020-07-16 19:29:01+00:00,312.4446,5.9,14.16,47.84626,-54.09684
2020-07-16 19:39:01+00:00,316.793,5.88,14.16,47.84626,-54.09684
2020-07-16 19:49:01+00:00,316.6512,5.8,14.16,47.84626,-54.09684
2020-07-16 19:59:01+00:00,315.9865,5.79,14.16,47.84626,-54.09684
2020-07-16 20:09:01+00:00,318.3748,5.7,14.16,47.84626,-54.09684
2020-07-16 20:19:01+00:00,317.0214,5.79,14.0,47.84626,-54.09684
2020-07-16 20:29:01+00:00,316.8529,5.77,14.0,47.84626,-54.09684
2020-07-16 20:39:01+00:00,317.3664,5.6,14.0,47.84626,-54.09684
2020-07-16 20:49:01+00:00,319.3713,5.5,14.0,47.84626,-54.09684
2020-07-16 20:59:01+00:00,319.4196,5.4,14.0,47.84626,-54.09684
2020-07-16 21:09:01+00:00,318.1047,5.25,14.0,47.84626,-54.09684
2020-07-16 21:19:01+00:00,315.9598,5.3,13.92,47.84626,-54.09684
2020-07-16 21:29:01+00:00,315.4915,5.26,13.92,47.84626,-54.09684
2020-07-16 21:39:01+00:00,313.7162,5.85,13.92,47.84626,-54.09684
2020-07-16 21:49:01+00:00,311.0897,6.67,13.92,47.84626,-54.09684
2020-07-16 21:59:01+00:00,308.603,7.94,13.92,47.84626,-54.09684
2020-07-16 22:09:01+00:00,305.1297,8.3,13.92,47.84626,-54.09684
2020-07-16 22:19:01+00:00,302.2664,8.1,13.76,47.84626,-54.09684
2020-07-16 22:29:01+00:00,298.3863,8.11,13.76,47.84626,-54.09684
2020-07-16 22:39:01+00:00,294.5564,8.55,13.76,47.84626,-54.09684
2020-07-16 22:49:01+00:00,290.4998,8.51,13.76,47.84626,-54.09684
2020-07-16 22:59:01+00:00,291.3614,8.5,13.76,47.84626,-54.09684
2020-07-16 23:09:01+00:00,286.3864,8.69,13.76,47.84626,-54.09684
2020-07-16 23:19:01+00:00,278.6131,6.33,13.37,47.84626,-54.09684
2020-07-16 23:29:01+00:00,276.2847,8.05,13.37,47.84626,-54.09684
2020-07-16 23:39:01+00:00,271.7581,9.51,13.37,47.84626,-54.09684
2020-07-16 23:49:01+00:00,261.8731,9.28,13.37,47.84626,-54.09684
2020-07-16 23:59:01+00:00,255.8581,7.77,13.37,47.84626,-54.09684
